User: anonymous   Login
Location: Saint-Usage
(47.1052°N, 5.2587°E)
Time: 23:11:32
(UTC+01:00)
Language:

VELOX 1 - Orbit

View from above orbital plane
View from above orbital plane
View from above satellite
View from above satellite

Ground track
Ground track

The orbit data is extracted from the following two-line orbital elements,

1 40057U 14034E   21335.58593733  .00000714  00000-0  10573-3 0  9996
2 40057  98.3457 135.6021 0009870 239.7305 120.2934 14.78390199400236
Epoch (UTC): 01 December 2021 14:03:44
Eccentricity: 0.0009870
inclination: 98.3457°
perigee height: 627 km
apogee height: 641 km
right ascension of ascending node: 135.6021°
argument of perigee: 239.7305°
revolutions per day: 14.78390199
mean anomaly at epoch: 120.2934°
orbit number at epoch: 40023

The dashed part of the orbit path shows where the satellite is in the earth's shadow,  

DLR